TimeEST,TemperatureF,Dew PointF,Humidity,Sea Level PressureIn,VisibilityMPH,Wind Direction,Wind SpeedMPH,Gust SpeedMPH,PrecipitationIn,Events,Conditions,WindDirDegrees,DateUTC
12:15 AM,50.0,44.6,82,29.74,10.0,SSW,17.3,-,N/A,,Overcast,210,2011-11-30 05:15:00
12:35 AM,48.2,42.8,82,29.74,10.0,SSW,17.3,-,N/A,,Overcast,210,2011-11-30 05:35:00
12:55 AM,48.2,42.8,82,29.73,10.0,SSW,16.1,25.3,N/A,,Scattered Clouds,210,2011-11-30 05:55:00
1:15 AM,48.2,42.8,82,29.73,10.0,SW,13.8,23.0,N/A,,Partly Cloudy,220,2011-11-30 06:15:00
1:35 AM,48.2,42.8,82,29.73,10.0,SSW,17.3,21.9,N/A,,Scattered Clouds,210,2011-11-30 06:35:00
1:55 AM,48.2,42.8,82,29.72,10.0,SSW,13.8,17.3,N/A,,Partly Cloudy,210,2011-11-30 06:55:00
2:15 AM,48.2,42.8,82,29.73,10.0,SSW,11.5,-,N/A,,Clear,210,2011-11-30 07:15:00
2:35 AM,48.2,42.8,82,29.73,10.0,SSW,10.4,-,N/A,,Clear,210,2011-11-30 07:35:00
2:55 AM,48.2,41.0,76,29.72,10.0,SSW,11.5,-,N/A,,Clear,210,2011-11-30 07:55:00
3:35 AM,48.2,41.0,76,29.72,10.0,SW,16.1,23.0,N/A,,Partly Cloudy,220,2011-11-30 08:35:00
3:55 AM,48.2,39.2,71,29.72,10.0,SW,18.4,24.2,N/A,,Partly Cloudy,230,2011-11-30 08:55:00
4:15 AM,48.2,39.2,71,29.73,10.0,SW,16.1,26.5,N/A,,Clear,230,2011-11-30 09:15:00
4:35 AM,46.4,39.2,76,29.73,10.0,SW,18.4,24.2,N/A,,Clear,230,2011-11-30 09:35:00
4:55 AM,46.4,37.4,71,29.74,10.0,WSW,16.1,31.1,N/A,,Clear,240,2011-11-30 09:55:00
5:15 AM,46.4,37.4,71,29.75,10.0,WSW,21.9,26.5,N/A,,Partly Cloudy,240,2011-11-30 10:15:00
5:35 AM,46.4,37.4,71,29.76,10.0,WSW,17.3,21.9,N/A,,Mostly Cloudy,240,2011-11-30 10:35:00
5:55 AM,46.4,37.4,71,29.76,10.0,WSW,15.0,20.7,N/A,,Overcast,240,2011-11-30 10:55:00
6:15 AM,44.6,37.4,76,29.77,10.0,WSW,13.8,21.9,N/A,,Mostly Cloudy,240,2011-11-30 11:15:00
6:55 AM,44.6,35.6,71,29.78,10.0,WSW,11.5,21.9,N/A,,Clear,240,2011-11-30 11:55:00
7:15 AM,44.6,35.6,71,29.78,10.0,WSW,15.0,21.9,N/A,,Clear,240,2011-11-30 12:15:00
7:35 AM,44.6,35.6,71,29.79,10.0,WSW,16.1,21.9,N/A,,Clear,240,2011-11-30 12:35:00
7:55 AM,44.6,35.6,71,29.79,10.0,WSW,13.8,21.9,N/A,,Partly Cloudy,240,2011-11-30 12:55:00
8:15 AM,44.6,35.6,71,29.80,10.0,WSW,15.0,21.9,N/A,,Mostly Cloudy,240,2011-11-30 13:15:00
8:35 AM,44.6,37.4,76,29.80,10.0,WSW,15.0,23.0,N/A,,Mostly Cloudy,240,2011-11-30 13:35:00
8:55 AM,46.4,37.4,71,29.80,10.0,WSW,16.1,19.6,N/A,,Partly Cloudy,240,2011-11-30 13:55:00
9:15 AM,46.4,37.4,71,29.80,10.0,SW,13.8,-,N/A,,Clear,230,2011-11-30 14:15:00
9:35 AM,46.4,37.4,71,29.80,10.0,SW,12.7,19.6,N/A,,Clear,230,2011-11-30 14:35:00
9:55 AM,46.4,37.4,71,29.80,10.0,WSW,11.5,18.4,N/A,,Clear,240,2011-11-30 14:55:00
10:15 AM,48.2,37.4,66,29.81,10.0,SW,13.8,17.3,N/A,,Clear,230,2011-11-30 15:15:00
10:35 AM,48.2,37.4,66,29.81,10.0,SW,10.4,-,N/A,,Clear,230,2011-11-30 15:35:00
10:55 AM,48.2,39.2,71,29.81,10.0,SW,12.7,-,N/A,,Clear,230,2011-11-30 15:55:00
11:35 AM,48.2,39.2,71,29.80,10.0,WSW,13.8,18.4,N/A,,Clear,240,2011-11-30 16:35:00
11:55 AM,48.2,39.2,71,29.79,10.0,WSW,13.8,20.7,N/A,,Clear,250,2011-11-30 16:55:00
12:35 PM,50.0,37.4,62,29.79,10.0,WSW,17.3,20.7,N/A,,Clear,240,2011-11-30 17:35:00
12:55 PM,50.0,37.4,62,29.80,10.0,WSW,15.0,19.6,N/A,,Clear,250,2011-11-30 17:55:00
1:15 PM,50.0,35.6,58,29.80,10.0,WSW,13.8,20.7,N/A,,Clear,240,2011-11-30 18:15:00
1:35 PM,50.0,37.4,62,29.80,10.0,SW,13.8,-,N/A,,Partly Cloudy,230,2011-11-30 18:35:00
1:55 PM,48.2,35.6,62,29.80,10.0,WSW,12.7,20.7,N/A,,Mostly Cloudy,240,2011-11-30 18:55:00
2:15 PM,48.2,35.6,62,29.80,10.0,WSW,10.4,17.3,N/A,,Overcast,250,2011-11-30 19:15:00
2:35 PM,48.2,35.6,62,29.80,10.0,West,10.4,18.4,N/A,,Overcast,260,2011-11-30 19:35:00
2:55 PM,48.2,33.8,58,29.81,10.0,West,12.7,19.6,N/A,,Overcast,260,2011-11-30 19:55:00
3:15 PM,50.0,33.8,54,29.82,10.0,West,15.0,20.7,N/A,,Overcast,270,2011-11-30 20:15:00
3:35 PM,48.2,33.8,58,29.83,10.0,West,11.5,17.3,N/A,,Scattered Clouds,270,2011-11-30 20:35:00
3:55 PM,48.2,32.0,54,29.83,10.0,West,15.0,23.0,N/A,,Mostly Cloudy,280,2011-11-30 20:55:00
4:15 PM,48.2,32.0,54,29.85,10.0,West,11.5,20.7,N/A,,Overcast,270,2011-11-30 21:15:00
4:35 PM,48.2,32.0,54,29.85,10.0,West,12.7,18.4,N/A,,Overcast,270,2011-11-30 21:35:00
4:55 PM,48.2,32.0,54,29.87,10.0,West,13.8,20.7,N/A,,Overcast,270,2011-11-30 21:55:00
5:15 PM,48.2,30.2,50,29.88,10.0,West,13.8,24.2,N/A,,Overcast,270,2011-11-30 22:15:00
5:35 PM,48.2,30.2,50,29.88,10.0,West,10.4,20.7,N/A,,Overcast,270,2011-11-30 22:35:00
5:55 PM,48.2,30.2,50,29.89,10.0,West,11.5,-,N/A,,Overcast,280,2011-11-30 22:55:00
6:15 PM,48.2,30.2,50,29.90,10.0,West,13.8,18.4,N/A,,Overcast,280,2011-11-30 23:15:00
6:35 PM,48.2,30.2,50,29.91,10.0,WNW,11.5,20.7,N/A,,Overcast,290,2011-11-30 23:35:00
6:55 PM,48.2,30.2,50,29.92,10.0,West,11.5,19.6,N/A,,Overcast,280,2011-11-30 23:55:00
7:15 PM,46.4,32.0,57,29.92,10.0,WNW,12.7,19.6,N/A,,Overcast,290,2011-12-01 00:15:00
7:35 PM,46.4,30.2,53,29.93,10.0,WNW,13.8,23.0,N/A,,Overcast,290,2011-12-01 00:35:00
7:55 PM,46.4,30.2,53,29.94,10.0,West,11.5,20.7,N/A,,Overcast,280,2011-12-01 00:55:00
8:15 PM,46.4,30.2,53,29.95,10.0,West,11.5,19.6,N/A,,Overcast,270,2011-12-01 01:15:00
8:35 PM,46.4,30.2,53,29.96,10.0,West,11.5,18.4,N/A,,Mostly Cloudy,280,2011-12-01 01:35:00
8:55 PM,44.6,30.2,57,29.97,10.0,WNW,13.8,20.7,N/A,,Clear,290,2011-12-01 01:55:00
9:15 PM,44.6,30.2,57,29.98,10.0,WNW,9.2,18.4,N/A,,Scattered Clouds,300,2011-12-01 02:15:00
9:35 PM,44.6,28.4,53,29.99,10.0,WNW,11.5,21.9,N/A,,Partly Cloudy,300,2011-12-01 02:35:00
10:35 PM,44.6,30.2,57,30.02,10.0,WNW,12.7,18.4,N/A,,Mostly Cloudy,290,2011-12-01 03:35:00
10:55 PM,44.6,30.2,57,30.03,10.0,WNW,12.7,18.4,N/A,,Overcast,300,2011-12-01 03:55:00
11:15 PM,44.6,30.2,57,30.03,10.0,NW,15.0,20.7,N/A,,Overcast,310,2011-12-01 04:15:00
11:35 PM,44.6,30.2,57,30.04,10.0,NW,9.2,20.7,N/A,,Mostly Cloudy,310,2011-12-01 04:35:00
11:55 PM,44.6,30.2,57,30.04,10.0,NW,10.4,23.0,N/A,,Overcast,310,2011-12-01 04:55:00